Flag for Mauritania Weather past 2 weeks in Nouadhibou, Mauritania

Now
70 °F

Clear.


Feels Like: 70 °F
Forecast: 71 / 82 °F
Wind: 15 mph from North

Location: Nouadhibou Airport

Current Time: Aug 28, 2015 at 5:54:11 AM

Latest Report: Aug 28, 2015 at 5:00 AM


Visibility: 5 mi

Pressure: 29.89 "Hg

Humidity: 83%

Dew point: 64 °F

Location of NouadhibouLocation

Historic Weather in Nouadhibou — Graph

°F

Nouadhibou temperature yesterday

Maximum temperature yesterday: 90 °F (at 1:00 PM)
Minimum temperature yesterday: 72 °F (at 7:00 AM)
Average temperature yesterday: 76 °F

Past Weeks' High & Low Weather Summary

 TemperatureHumidityPressure
High102 °F (Aug 22, 1:00 PM)94% (Aug 14, 4:00 AM)30.04 "Hg (Aug 14, 4:00 AM)
Low70 °F (Aug 18, 2:00 AM)23% (Aug 26, 1:00 PM)29.74 "Hg (Aug 15, 5:00 AM)
Average81 °F65%29.88 "Hg
* Reported Aug 13 4:00 AM — Aug 28 4:00 AM, Nouadhibou, Weather by CustomWeather, © 2015

Note: Actual official high and low records may vary slightly from our data, if they occured in-between our weather recording intervals... More about our weather records

Advertising

Nouadhibou weather history for previous 24 hours

 ConditionsComfort  
Time TempWeatherWind HumidityBarometerVisibility
4:00 AM
Fri, Aug 28
70 °FClear.18 mph83%29.86 "Hg5 mi
3:00 AM70 °FClear.18 mph83%29.86 "Hg5 mi
12:00 AM73 °FClear.21 mph74%29.89 "Hg5 mi
11:00 PM
Thu, Aug 27
73 °FClear.22 mph74%29.89 "Hg5 mi
10:00 PM73 °FClear.20 mph74%29.89 "Hg5 mi
9:00 PM73 °FClear.16 mph74%29.89 "Hg5 mi
8:00 PM73 °FClear.20 mph74%29.86 "Hg5 mi
7:00 PM75 °FClear.18 mph69%29.86 "Hg5 mi
6:00 PM77 °FClear.20 mph65%29.86 "Hg5 mi
5:00 PM79 °FClear.21 mph65%29.86 "Hg5 mi
4:00 PM79 °FClear.22 mph65%29.86 "Hg5 mi
3:00 PM81 °FClear.18 mph62%29.89 "Hg5 mi
2:00 PM84 °FClear.14 mph55%29.92 "Hg5 mi
1:00 PM90 °FClear.18 mph33%29.95 "Hg5 mi
11:00 AM81 °FClear.20 mph51%29.98 "Hg5 mi
10:00 AM79 °FClear.22 mph58%29.95 "Hg5 mi
9:00 AM75 °FClear.23 mph65%29.95 "Hg5 mi
8:00 AM73 °FClear.18 mph69%29.92 "Hg5 mi
7:00 AM72 °FClear.17 mph73%29.89 "Hg5 mi
6:00 AM73 °FClear.18 mph74%29.86 "Hg5 mi
5:00 AM73 °FClear.17 mph74%29.86 "Hg5 mi
Weather by CustomWeather, © 2015

See weather overviewHow to use our weather pages